User: anonymous   Login
Location: Cussy
(47.0410°N, 4.6412°E)
Time: 04:47:54
(UTC+00:00)
Language:

Cosmos 158 Rocket - Orbit

View from above orbital plane
View from above orbital plane
View from above satellite
View from above satellite

Ground track
Ground track

The orbit data is extracted from the following two-line orbital elements,

1  2802U 67045B   21058.71118704  .00000063  00000-0  26134-4 0  9998
2  2802  74.0133 170.4446 0067696 260.0950  99.2561 14.43798467824025
Epoch (UTC): 27 February 2021 17:04:06
Eccentricity: 0.0067696
inclination: 74.0133°
perigee height: 698 km
apogee height: 794 km
right ascension of ascending node: 170.4446°
argument of perigee: 260.0950°
revolutions per day: 14.43798467
mean anomaly at epoch: 99.2561°
orbit number at epoch: 82402

The dashed part of the orbit path shows where the satellite is in the earth's shadow,  

DLR